06-03-2023, 00:00:05,    249,    0.0,   -0.2,   0.00,   0.00, 1008.5,   82.5, -999.0
06-03-2023, 00:00:15,    249,    0.0,   -0.2,   0.00,   0.00, 1008.5,   82.6, -999.0
06-03-2023, 00:00:25,    249,    0.0,   -0.2,   0.00,   0.00, 1008.5,   82.6, -999.0
06-03-2023, 00:00:35,    249,    0.0,   -0.1,   0.00,   0.00, 1008.5,   82.6, -999.0
06-03-2023, 00:00:45,    249,    0.0,   -0.3,   0.00,   0.00, 1008.5,   82.6, -999.0
06-03-2023, 00:00:55,    248,    0.0,   -0.3,   0.00,   0.00, 1008.5,   82.6, -999.0
06-03-2023, 00:01:05,    249,    0.0,   -0.4,   0.00,   0.00, 1008.5,   82.7, -999.0
06-03-2023, 00:01:15,    249,    0.0,   -0.2,   0.00,   0.00, 1008.5,   82.8, -999.0
06-03-2023, 00:01:25,    249,    0.0,   -0.2,   0.00,   0.00, 1008.5,   82.8, -999.0
06-03-2023, 00:01:35,    249,    0.0,   -0.2,   0.00,   0.00, 1008.5,   82.9, -999.0
06-03-2023, 00:01:45,    249,    0.0,   -0.3,   0.00,   0.00, 1008.5,   82.8, -999.0
06-03-2023, 00:01:55,    249,    0.0,   -0.4,   0.00,   0.00, 1008.5,   82.9, -999.0
06-03-2023, 00:02:05,    249,    0.0,   -0.3,   0.00,   0.00, 1008.5,   82.9, -999.0
06-03-2023, 00:02:15,    250,    0.0,   -0.3,   0.00,   0.00, 1008.5,   82.9, -999.0
06-03-2023, 00:02:25,    250,    0.0,   -0.2,   0.00,   0.00, 1008.5,   82.9, -999.0
06-03-2023, 00:02:35,    250,    0.0,   -0.3,   0.00,   0.00, 1008.5,   82.9, -999.0
06-03-2023, 00:02:45,    250,    0.0,   -0.2,   0.00,   0.00, 1008.5,   83.0, -999.0
06-03-2023, 00:02:55,    249,    0.0,   -0.2,   0.00,   0.00, 1008.5,   83.0, -999.0
06-03-2023, 00:03:05,    250,    0.0,   -0.2,   0.00,   0.00, 1008.5,   83.1, -999.0
06-03-2023, 00:03:15,    250,    0.0,   -0.3,   0.00,   0.00, 1008.5,   83.0, -999.0
06-03-2023, 00:03:25,    249,    0.0,   -0.2,   0.00,   0.00, 1008.5,   83.2, -999.0
06-03-2023, 00:03:35,    249,    0.0,   -0.2,   0.00,   0.00, 1008.5,   83.1, -999.0
06-03-2023, 00:03:45,    249,    0.0,   -0.2,   0.00,   0.00, 1008.5,   83.3, -999.0
06-03-2023, 00:03:55,    250,    0.0,   -0.2,   0.00,   0.00, 1008.5,   83.2, -999.0
06-03-2023, 00:04:05,    249,    0.0,   -0.2,   0.00,   0.00, 1008.5,   83.1, -999.0
06-03-2023, 00:04:15,    250,    0.0,   -0.2,   0.00,   0.00, 1008.5,   83.1, -999.0
06-03-2023, 00:04:25,    250,    0.0,   -0.2,   0.00,   0.00, 1008.5,   83.2, -999.0
06-03-2023, 00:04:34,    250,    0.0,   -0.2,   0.00,   0.00, 1008.5,   83.1, -999.0
06-03-2023, 00:04:45,    250,    0.0,   -0.3,   0.00,   0.00, 1008.5,   83.1, -999.0
06-03-2023, 00:04:55,    250,    0.0,   -0.3,   0.00,   0.00, 1008.5,   83.0, -999.0
06-03-2023, 00:05:05,    249,    0.0,   -0.2,   0.00,   0.00, 1008.5,   83.1, -999.0
06-03-2023, 00:05:14,    250,    0.0,   -0.2,   0.00,   0.00, 1008.5,   83.0, -999.0
06-03-2023, 00:05:25,    249,    0.0,   -0.3,   0.00,   0.00, 1008.5,   82.9, -999.0
06-03-2023, 00:05:35,    250,    0.0,   -0.3,   0.00,   0.00, 1008.5,   83.0, -999.0
06-03-2023, 00:05:44,    250,    0.0,   -0.2,   0.00,   0.00, 1008.5,   82.9, -999.0
06-03-2023, 00:05:54,    250,    0.0,   -0.3,   0.00,   0.00, 1008.5,   82.9, -999.0
06-03-2023, 00:06:05,    249,    0.0,   -0.2,   0.00,   0.00, 1008.5,   83.2, -999.0
06-03-2023, 00:06:15,    250,    0.0,   -0.3,   0.00,   0.00, 1008.5,   83.1, -999.0
06-03-2023, 00:06:24,    250,    0.0,   -0.3,   0.00,   0.00, 1008.5,   83.1, -999.0
06-03-2023, 00:06:34,    250,    0.0,   -0.2,   0.00,   0.00, 1008.5,   83.1, -999.0
06-03-2023, 00:06:45,    250,    0.0,   -0.2,   0.00,   0.00, 1008.5,   83.1, -999.0
06-03-2023, 00:06:54,    250,    0.0,   -0.3,   0.00,   0.00, 1008.5,   83.3, -999.0
06-03-2023, 00:07:04,    249,    0.0,   -0.3,   0.00,   0.00, 1008.5,   83.2, -999.0
06-03-2023, 00:07:14,    250,    0.0,   -0.3,   0.00,   0.00, 1008.5,   83.1, -999.0
06-03-2023, 00:07:25,    250,    0.0,   -0.3,   0.00,   0.00, 1008.5,   83.1, -999.0
06-03-2023, 00:07:34,    250,    0.0,   -0.3,   0.00,   0.00, 1008.5,   83.1, -999.0
06-03-2023, 00:07:44,    250,    0.0,   -0.3,   0.00,   0.00, 1008.5,   83.3, -999.0
06-03-2023, 00:07:54,    249,    0.0,   -0.2,   0.00,   0.00, 1008.5,   83.4, -999.0
06-03-2023, 00:08:05,    250,    0.0,   -0.3,   0.00,   0.00, 1008.5,   83.4, -999.0
06-03-2023, 00:08:14,    250,    0.0,   -0.3,   0.00,   0.00, 1008.5,   83.3, -999.0
06-03-2023, 00:08:24,    250,    0.0,   -0.3,   0.00,   0.00, 1008.5,   83.4, -999.0
06-03-2023, 00:08:35,    253,    0.0,   -0.3,   0.00,   0.00, 1008.5,   83.4, -999.0
06-03-2023, 00:08:44,    250,    0.0,   -0.3,   0.00,   0.00, 1008.5,   83.4, -999.0
06-03-2023, 00:08:54,    250,    0.0,   -0.4,   0.00,   0.00, 1008.5,   83.4, -999.0
06-03-2023, 00:09:04,    250,    0.0,   -0.4,   0.00,   0.00, 1008.5,   83.4, -999.0
06-03-2023, 00:09:15,    250,    0.0,   -0.4,   0.00,   0.00, 1008.5,   83.3, -999.0
06-03-2023, 00:09:24,    250,    0.0,   -0.4,   0.00,   0.00, 1008.5,   83.3, -999.0
06-03-2023, 00:09:34,    250,    0.0,   -0.4,   0.00,   0.00, 1008.5,   83.4, -999.0
06-03-2023, 00:09:44,    250,    0.0,   -0.4,   0.00,   0.00, 1008.5,   83.3, -999.0
06-03-2023, 00:09:54,    250,    0.0,   -0.4,   0.00,   0.00, 1008.5,   83.4, -999.0
06-03-2023, 00:10:04,    250,    0.0,   -0.4,   0.00,   0.00, 1008.4,   83.3, -999.0
06-03-2023, 00:10:14,    250,    0.0,   -0.5,   0.00,   0.00, 1008.4,   83.3, -999.0
06-03-2023, 00:10:24,    250,    0.0,   -0.4,   0.00,   0.00, 1008.4,   83.5, -999.0
06-03-2023, 00:10:34,    250,    0.0,   -0.4,   0.00,   0.00, 1008.4,   83.5, -999.0
06-03-2023, 00:10:44,    250,    0.0,   -0.4,   0.00,   0.00, 1008.4,   83.5, -999.0
06-03-2023, 00:10:54,    251,    0.0,   -0.4,   0.00,   0.00, 1008.4,   83.6, -999.0
06-03-2023, 00:11:04,    251,    0.0,   -0.5,   0.00,   0.00, 1008.4,   83.7, -999.0
06-03-2023, 00:11:14,    251,    0.0,   -0.4,   0.00,   0.00, 1008.4,   83.7, -999.0
06-03-2023, 00:11:24,    252,    0.0,   -0.5,   0.00,   0.00, 1008.4,   83.7, -999.0
06-03-2023, 00:11:34,    252,    0.0,   -0.5,   0.00,   0.00, 1008.4,   83.8, -999.0
06-03-2023, 00:11:44,    251,    0.0,   -0.4,   0.00,   0.00, 1008.4,   83.8, -999.0
06-03-2023, 00:11:54,    251,    0.0,   -0.4,   0.00,   0.00, 1008.4,   83.9, -999.0
06-03-2023, 00:12:04,    251,    0.0,   -0.5,   0.00,   0.00, 1008.4,   84.0, -999.0
06-03-2023, 00:12:14,    252,    0.0,   -0.4,   0.00,   0.00, 1008.4,   84.0, -999.0
06-03-2023, 00:12:24,    251,    0.0,   -0.5,   0.00,   0.00, 1008.4,   84.1, -999.0
06-03-2023, 00:12:34,    252,    0.0,   -0.5,   0.00,   0.00, 1008.4,   84.1, -999.0
06-03-2023, 00:12:44,    252,    0.0,   -0.5,   0.00,   0.00, 1008.4,   84.3, -999.0
06-03-2023, 00:12:54,    253,    0.0,   -0.5,   0.00,   0.00, 1008.4,   84.2, -999.0
06-03-2023, 00:13:04,    253,    0.0,   -0.5,   0.00,   0.00, 1008.4,   84.3, -999.0
06-03-2023, 00:13:14,    253,    0.0,   -0.5,   0.00,   0.00, 1008.4,   84.3, -999.0
06-03-2023, 00:13:24,    253,    0.0,   -0.5,   0.00,   0.00, 1008.4,   84.3, -999.0
06-03-2023, 00:13:34,    253,    0.0,   -0.6,   0.00,   0.00, 1008.4,   84.3, -999.0
06-03-2023, 00:13:44,    253,    0.0,   -0.5,   0.00,   0.00, 1008.4,   84.5, -999.0
06-03-2023, 00:13:54,    253,    0.0,   -0.5,   0.00,   0.00, 1008.4,   84.6, -999.0
06-03-2023, 00:14:04,    253,    0.0,   -0.4,   0.00,   0.00, 1008.4,   84.5, -999.0
06-03-2023, 00:14:14,    253,    0.0,   -0.5,   0.00,   0.00, 1008.4,   84.6, -999.0
06-03-2023, 00:14:24,    254,    0.0,   -0.5,   0.00,   0.00, 1008.4,   84.6, -999.0
06-03-2023, 00:14:34,    253,    0.0,   -0.5,   0.00,   0.00, 1008.4,   84.5, -999.0
06-03-2023, 00:14:44,    254,    0.0,   -0.5,   0.00,   0.00, 1008.4,   84.6, -999.0
06-03-2023, 00:14:54,    253,    0.0,   -0.5,   0.00,   0.00, 1008.4,   84.8, -999.0
06-03-2023, 00:15:04,    253,    0.0,   -0.5,   0.00,   0.00, 1008.4,   84.8, -999.0
06-03-2023, 00:15:14,    253,    0.0,   -0.5,   0.00,   0.00, 1008.4,   84.9, -999.0
06-03-2023, 00:15:24,    253,    0.0,   -0.4,   0.00,   0.00, 1008.4,   85.0, -999.0
06-03-2023, 00:15:34,    253,    0.0,   -0.4,   0.00,   0.00, 1008.4,   84.9, -999.0
06-03-2023, 00:15:43,    253,    0.0,   -0.5,   0.00,   0.00, 1008.4,   84.9, -999.0
06-03-2023, 00:15:54,    253,    0.0,   -0.4,   0.00,   0.00, 1008.4,   84.9, -999.0
06-03-2023, 00:16:04,    253,    0.0,   -0.5,   0.00,   0.00, 1008.4,   84.8, -999.0
06-03-2023, 00:16:14,    254,    0.0,   -0.4,   0.00,   0.00, 1008.4,   84.8, -999.0
06-03-2023, 00:16:23,    253,    0.0,   -0.5,   0.00,   0.00, 1008.4,   84.7, -999.0
06-03-2023, 00:16:34,    253,    0.0,   -0.5,   0.00,   0.00, 1008.4,   84.8, -999.0
06-03-2023, 00:16:44,    253,    0.0,   -0.5,   0.00,   0.00, 1008.4,   84.7, -999.0
06-03-2023, 00:16:53,    253,    0.0,   -0.6,   0.00,   0.00, 1008.3,   84.8, -999.0
06-03-2023, 00:17:03,    253,    0.0,   -0.5,   0.00,   0.00, 1008.3,   84.9, -999.0
06-03-2023, 00:17:14,    254,    0.0,   -0.6,   0.00,   0.00, 1008.3,   84.8, -999.0
06-03-2023, 00:17:24,    254,    0.1,   -0.5,   0.00,   0.00, 1008.4,   85.0, -999.0
06-03-2023, 00:17:33,    255,    0.0,   -0.5,   0.00,   0.00, 1008.4,   84.9, -999.0
06-03-2023, 00:17:44,    254,    0.0,   -0.6,   0.00,   0.00, 1008.4,   85.1, -999.0
06-03-2023, 00:17:54,    253,    0.0,   -0.5,   0.00,   0.00, 1008.4,   85.3, -999.0
06-03-2023, 00:18:03,    253,    0.0,   -0.6,   0.00,   0.00, 1008.4,   85.2, -999.0
06-03-2023, 00:18:13,    253,    0.0,   -0.6,   0.00,   0.00, 1008.3,   85.3, -999.0
06-03-2023, 00:18:24,    253,    0.0,   -0.5,   0.00,   0.00, 1008.4,   85.4, -999.0
06-03-2023, 00:18:34,    255,    0.0,   -0.5,   0.00,   0.00, 1008.3,   85.4, -999.0
06-03-2023, 00:18:43,    254,    0.0,   -0.6,   0.00,   0.00, 1008.3,   85.4, -999.0
06-03-2023, 00:18:53,    254,    0.0,   -0.5,   0.00,   0.00, 1008.4,   85.5, -999.0
06-03-2023, 00:19:04,    253,    0.0,   -0.5,   0.00,   0.00, 1008.4,   85.4, -999.0
06-03-2023, 00:19:13,    253,    0.0,   -0.5,   0.00,   0.00, 1008.4,   85.5, -999.0
06-03-2023, 00:19:23,    254,    0.3,   -0.4,   0.00,   0.00, 1008.4,   85.7, -999.0
06-03-2023, 00:19:33,    254,    0.1,   -0.7,   0.00,   0.00, 1008.4,   85.6, -999.0
06-03-2023, 00:19:43,    254,    0.0,   -0.5,   0.00,   0.00, 1008.4,   85.8, -999.0
06-03-2023, 00:19:53,    253,    0.0,   -0.5,   0.00,   0.00, 1008.3,   85.7, -999.0
06-03-2023, 00:20:03,    253,    0.0,   -0.5,   0.00,   0.00, 1008.3,   85.7, -999.0
06-03-2023, 00:20:13,    254,    0.0,   -0.6,   0.00,   0.00, 1008.3,   85.7, -999.0
06-03-2023, 00:20:23,    254,    0.0,   -0.6,   0.00,   0.00, 1008.3,   85.8, -999.0
06-03-2023, 00:20:33,    254,    0.0,   -0.5,   0.00,   0.00, 1008.3,   85.8, -999.0
06-03-2023, 00:20:43,    254,    0.0,   -0.5,   0.00,   0.00, 1008.3,   85.7, -999.0
06-03-2023, 00:20:54,    254,    0.0,   -0.5,   0.00,   0.00, 1008.3,   85.7, -999.0
06-03-2023, 00:21:03,    258,    0.3,   -0.5,   0.00,   0.00, 1008.4,   85.8, -999.0
06-03-2023, 00:21:13,    258,    0.0,   -0.6,   0.00,   0.00, 1008.3,   85.6, -999.0
06-03-2023, 00:21:23,    258,    0.0,   -0.5,   0.00,   0.00, 1008.3,   85.6, -999.0
06-03-2023, 00:21:33,    258,    0.0,   -0.5,   0.00,   0.00, 1008.3,   85.7, -999.0
06-03-2023, 00:21:43,    258,    0.0,   -0.5,   0.00,   0.00, 1008.3,   85.8, -999.0
06-03-2023, 00:21:53,    259,    0.0,   -0.6,   0.00,   0.00, 1008.3,   85.8, -999.0
06-03-2023, 00:22:03,    258,    0.0,   -0.4,   0.00,   0.00, 1008.3,   85.9, -999.0
06-03-2023, 00:22:13,    259,    0.0,   -0.6,   0.00,   0.00, 1008.3,   85.8, -999.0
06-03-2023, 00:22:23,    258,    0.0,   -0.6,   0.00,   0.00, 1008.3,   85.9, -999.0
06-03-2023, 00:22:33,    258,    0.0,   -0.6,   0.00,   0.00, 1008.3,   85.9, -999.0
06-03-2023, 00:22:43,    259,    0.6,   -0.5,   0.00,   0.00, 1008.4,   86.2, -999.0
06-03-2023, 00:22:53,    259,    0.5,   -0.5,   0.00,   0.00, 1008.4,   86.2, -999.0
06-03-2023, 00:23:03,    259,    0.4,   -0.6,   0.00,   0.00, 1008.4,   86.0, -999.0
06-03-2023, 00:23:13,    258,    0.3,   -0.6,   0.00,   0.00, 1008.3,   85.7, -999.0
06-03-2023, 00:23:23,    258,    0.0,   -0.7,   0.00,   0.00, 1008.3,   85.5, -999.0
06-03-2023, 00:23:33,    255,    0.0,   -0.6,   0.00,   0.00, 1008.3,   85.6, -999.0
06-03-2023, 00:23:43,    255,    0.0,   -0.6,   0.00,   0.00, 1008.3,   85.9, -999.0
06-03-2023, 00:23:53,    255,    0.2,   -0.6,   0.00,   0.00, 1008.3,   86.0, -999.0
06-03-2023, 00:24:03,    253,    0.5,   -0.6,   0.00,   0.00, 1008.4,   86.2, -999.0
06-03-2023, 00:24:13,    253,    0.0,   -0.6,   0.00,   0.00, 1008.3,   86.0, -999.0
06-03-2023, 00:24:23,    253,    0.0,   -0.6,   0.00,   0.00, 1008.3,   86.0, -999.0
06-03-2023, 00:24:33,    253,    0.1,   -0.5,   0.00,   0.00, 1008.3,   86.1, -999.0
06-03-2023, 00:24:43,    254,    0.0,   -0.7,   0.00,   0.00, 1008.3,   86.1, -999.0
06-03-2023, 00:24:53,    254,    0.0,   -0.6,   0.00,   0.00, 1008.3,   86.1, -999.0
06-03-2023, 00:25:03,    254,    0.0,   -0.6,   0.00,   0.00, 1008.2,   86.1, -999.0
06-03-2023, 00:25:13,    254,    0.1,   -0.6,   0.00,   0.00, 1008.3,   86.2, -999.0
06-03-2023, 00:25:23,    254,    0.2,   -0.6,   0.00,   0.00, 1008.3,   86.3, -999.0
06-03-2023, 00:25:33,    254,    0.4,   -0.7,   0.00,   0.00, 1008.4,   86.1, -999.0
06-03-2023, 00:25:43,    253,    0.1,   -0.5,   0.00,   0.00, 1008.3,   86.2, -999.0
06-03-2023, 00:25:53,    254,    0.2,   -0.6,   0.00,   0.00, 1008.3,   86.3, -999.0
06-03-2023, 00:26:03,    254,    0.0,   -0.6,   0.00,   0.00, 1008.3,   86.1, -999.0
06-03-2023, 00:26:13,    257,    0.1,   -0.7,   0.00,   0.00, 1008.3,   86.4, -999.0
06-03-2023, 00:26:23,    257,    0.2,   -0.5,   0.00,   0.00, 1008.4,   86.6, -999.0
06-03-2023, 00:26:33,    256,    0.0,   -0.6,   0.00,   0.00, 1008.2,   86.3, -999.0
06-03-2023, 00:26:43,    257,    0.0,   -0.6,   0.00,   0.00, 1008.3,   86.2, -999.0
06-03-2023, 00:26:53,    256,    0.2,   -0.6,   0.00,   0.00, 1008.3,   86.6, -999.0
06-03-2023, 00:27:03,    256,    0.1,   -0.5,   0.00,   0.00, 1008.4,   86.8, -999.0
06-03-2023, 00:27:12,    254,    0.4,   -0.6,   0.00,   0.00, 1008.3,   86.7, -999.0
06-03-2023, 00:27:23,    254,    0.3,   -0.6,   0.00,   0.00, 1008.3,   86.5, -999.0
06-03-2023, 00:27:33,    254,    0.0,   -0.6,   0.00,   0.00, 1008.2,   86.3, -999.0
06-03-2023, 00:27:43,    254,    0.0,   -0.6,   0.00,   0.00, 1008.2,   86.4, -999.0
06-03-2023, 00:27:52,    253,    0.1,   -0.6,   0.00,   0.00, 1008.3,   86.7, -999.0
06-03-2023, 00:28:03,    249,    0.4,   -0.6,   0.00,   0.00, 1008.3,   86.8, -999.0
06-03-2023, 00:28:13,    249,    0.0,   -0.6,   0.00,   0.00, 1008.2,   86.6, -999.0
06-03-2023, 00:28:22,    249,    0.1,   -0.5,   0.00,   0.00, 1008.3,   87.0, -999.0
06-03-2023, 00:28:32,    249,    0.3,   -0.6,   0.00,   0.00, 1008.3,   87.1, -999.0
06-03-2023, 00:28:43,    249,    0.0,   -0.7,   0.00,   0.00, 1008.2,   86.7, -999.0
06-03-2023, 00:28:53,    249,    0.0,   -0.7,   0.00,   0.00, 1008.2,   86.6, -999.0
06-03-2023, 00:29:02,    249,    0.0,   -0.6,   0.00,   0.00, 1008.2,   86.6, -999.0
06-03-2023, 00:29:12,    249,    0.0,   -0.8,   0.00,   0.00, 1008.2,   86.6, -999.0
06-03-2023, 00:29:23,    249,    0.2,   -0.6,   0.00,   0.00, 1008.3,   86.9, -999.0
06-03-2023, 00:29:32,    249,    0.0,   -0.5,   0.00,   0.00, 1008.2,   86.8, -999.0
06-03-2023, 00:29:42,    249,    0.0,   -0.6,   0.00,   0.00, 1008.2,   86.7, -999.0
06-03-2023, 00:29:52,    249,    0.0,   -0.6,   0.00,   0.00, 1008.2,   86.9, -999.0
06-03-2023, 00:30:03,    249,    0.0,   -0.6,   0.00,   0.00, 1008.2,   86.9, -999.0
06-03-2023, 00:30:12,    249,    0.0,   -0.7,   0.00,   0.00, 1008.2,   86.9, -999.0
06-03-2023, 00:30:22,    249,    0.0,   -0.7,   0.00,   0.00, 1008.2,   87.0, -999.0
06-03-2023, 00:30:32,    249,    0.0,   -0.6,   0.00,   0.00, 1008.2,   87.1, -999.0
06-03-2023, 00:30:42,    250,    0.6,   -0.5,   0.00,   0.00, 1008.3,   87.6, -999.0
06-03-2023, 00:30:52,    249,    0.5,   -0.7,   0.00,   0.00, 1008.3,   87.5, -999.0
06-03-2023, 00:31:02,    249,    0.1,   -0.6,   0.00,   0.00, 1008.3,   87.5, -999.0
06-03-2023, 00:31:13,    249,    0.0,   -0.6,   0.00,   0.00, 1008.2,   87.3, -999.0
06-03-2023, 00:31:22,    249,    0.0,   -0.6,   0.00,   0.00, 1008.2,   87.2, -999.0
06-03-2023, 00:31:32,    246,    0.4,   -0.6,   0.00,   0.00, 1008.3,   87.4, -999.0
06-03-2023, 00:31:42,    246,    0.0,   -0.7,   0.00,   0.00, 1008.2,   87.6, -999.0
06-03-2023, 00:31:52,    246,    0.0,   -0.6,   0.00,   0.00, 1008.2,   87.4, -999.0
06-03-2023, 00:32:02,    246,    0.0,   -0.6,   0.00,   0.00, 1008.2,   87.4, -999.0
06-03-2023, 00:32:12,    247,    0.0,   -0.7,   0.00,   0.00, 1008.2,   87.5, -999.0
06-03-2023, 00:32:22,    247,    0.2,   -0.6,   0.00,   0.00, 1008.2,   87.5, -999.0
06-03-2023, 00:32:32,    262,    0.4,   -0.6,   0.00,   0.00, 1008.3,   87.5, -999.0
06-03-2023, 00:32:42,    260,    0.2,   -0.7,   0.00,   0.00, 1008.3,   87.4, -999.0
06-03-2023, 00:32:52,    258,    0.1,   -0.7,   0.00,   0.00, 1008.2,   87.3, -999.0
06-03-2023, 00:33:02,    224,    1.0,   -0.7,   0.00,   0.00, 1008.3,   87.4, -999.0
06-03-2023, 00:33:12,    241,    0.6,   -0.6,   0.00,   0.00, 1008.3,   87.4, -999.0
06-03-2023, 00:33:22,    242,    0.4,   -0.6,   0.00,   0.00, 1008.3,   87.4, -999.0
06-03-2023, 00:33:32,    242,    0.3,   -0.6,   0.00,   0.00, 1008.3,   87.6, -999.0
06-03-2023, 00:33:42,    243,    0.2,   -0.6,   0.00,   0.00, 1008.3,   87.6, -999.0
06-03-2023, 00:33:52,    243,    0.2,   -0.7,   0.00,   0.00, 1008.2,   87.5, -999.0
06-03-2023, 00:34:02,    256,    0.4,   -0.8,   0.00,   0.00, 1008.2,   87.6, -999.0
06-03-2023, 00:34:12,    256,    0.2,   -0.7,   0.00,   0.00, 1008.3,   87.6, -999.0
06-03-2023, 00:34:22,    255,    0.1,   -0.7,   0.00,   0.00, 1008.2,   87.5, -999.0
06-03-2023, 00:34:32,    256,    0.0,   -0.8,   0.00,   0.00, 1008.2,   87.3, -999.0
06-03-2023, 00:34:42,    256,    0.0,   -0.8,   0.00,   0.00, 1008.2,   87.5, -999.0
06-03-2023, 00:34:52,    256,    0.0,   -0.8,   0.00,   0.00, 1008.2,   87.7, -999.0
06-03-2023, 00:35:02,    256,    0.1,   -0.8,   0.00,   0.00, 1008.2,   88.0, -999.0
06-03-2023, 00:35:12,    256,    0.1,   -0.8,   0.00,   0.00, 1008.2,   88.0, -999.0
06-03-2023, 00:35:22,    256,    0.0,   -0.8,   0.00,   0.00, 1008.2,   87.8, -999.0
06-03-2023, 00:35:32,    257,    0.0,   -0.9,   0.00,   0.00, 1008.2,   87.7, -999.0
06-03-2023, 00:35:42,    256,    0.0,   -0.9,   0.00,   0.00, 1008.2,   87.8, -999.0
06-03-2023, 00:35:52,    256,    0.0,   -0.8,   0.00,   0.00, 1008.2,   87.9, -999.0
06-03-2023, 00:36:02,    256,    0.0,   -0.8,   0.00,   0.00, 1008.2,   88.0, -999.0
06-03-2023, 00:36:12,    256,    0.0,   -0.8,   0.00,   0.00, 1008.2,   88.0, -999.0
06-03-2023, 00:36:22,    256,    0.0,   -0.9,   0.00,   0.00, 1008.2,   88.1, -999.0
06-03-2023, 00:36:32,    257,    0.0,   -0.8,   0.00,   0.00, 1008.2,   88.3, -999.0
06-03-2023, 00:36:42,    256,    0.0,   -0.9,   0.00,   0.00, 1008.2,   88.5, -999.0
06-03-2023, 00:36:52,    257,    0.0,   -0.9,   0.00,   0.00, 1008.2,   88.6, -999.0
06-03-2023, 00:37:02,    255,    0.0,   -0.8,   0.00,   0.00, 1008.2,   88.6, -999.0
06-03-2023, 00:37:12,    256,    0.0,   -0.9,   0.00,   0.00, 1008.1,   88.7, -999.0
06-03-2023, 00:37:22,    256,    0.0,   -0.9,   0.00,   0.00, 1008.1,   88.8, -999.0
06-03-2023, 00:37:32,    257,    0.0,   -0.8,   0.00,   0.00, 1008.2,   88.7, -999.0
06-03-2023, 00:37:42,    256,    0.0,   -0.8,   0.00,   0.00, 1008.2,   88.8, -999.0
06-03-2023, 00:37:52,    257,    0.0,   -0.8,   0.00,   0.00, 1008.1,   88.7, -999.0
06-03-2023, 00:38:02,    256,    0.0,   -0.8,   0.00,   0.00, 1008.2,   88.8, -999.0
06-03-2023, 00:38:11,    256,    0.0,   -0.7,   0.00,   0.00, 1008.2,   89.1, -999.0
06-03-2023, 00:38:22,    256,    0.0,   -0.8,   0.00,   0.00, 1008.2,   89.8, -999.0
06-03-2023, 00:38:32,    257,    0.3,   -0.6,   0.00,   0.00, 1008.3,   90.9, -999.0
06-03-2023, 00:38:42,    256,    0.2,   -0.7,   0.00,   0.00, 1008.3,   91.0, -999.0
06-03-2023, 00:38:51,    257,    0.0,   -0.7,   0.00,   0.00, 1008.2,   90.8, -999.0
06-03-2023, 00:39:02,    256,    0.2,   -0.7,   0.00,   0.00, 1008.2,   90.5, -999.0
06-03-2023, 00:39:12,    255,    0.1,   -0.7,   0.00,   0.00, 1008.2,   90.5, -999.0
06-03-2023, 00:39:21,    256,    0.1,   -0.7,   0.00,   0.00, 1008.3,   90.7, -999.0
06-03-2023, 00:39:31,    255,    0.0,   -0.7,   0.00,   0.00, 1008.2,   90.3, -999.0
06-03-2023, 00:39:42,    256,    0.0,   -0.7,   0.00,   0.00, 1008.2,   90.2, -999.0
06-03-2023, 00:39:52,    256,    0.0,   -0.8,   0.00,   0.00, 1008.2,   89.8, -999.0
06-03-2023, 00:40:01,    256,    0.0,   -0.8,   0.00,   0.00, 1008.2,   89.7, -999.0
06-03-2023, 00:40:11,    256,    0.2,   -0.8,   0.00,   0.00, 1008.2,   89.6, -999.0
06-03-2023, 00:40:22,    256,    0.0,   -0.9,   0.00,   0.00, 1008.2,   89.4, -999.0
06-03-2023, 00:40:31,    256,    0.1,   -0.8,   0.00,   0.00, 1008.2,   89.6, -999.0
06-03-2023, 00:40:41,    256,    0.0,   -0.7,   0.00,   0.00, 1008.2,   89.4, -999.0
06-03-2023, 00:40:51,    256,    0.0,   -0.8,   0.00,   0.00, 1008.1,   89.3, -999.0
06-03-2023, 00:41:02,    256,    0.0,   -0.8,   0.00,   0.00, 1008.1,   89.2, -999.0
06-03-2023, 00:41:11,    253,    0.0,   -0.9,   0.00,   0.00, 1008.2,   89.3, -999.0
06-03-2023, 00:41:21,    253,    0.3,   -0.8,   0.00,   0.00, 1008.2,   89.5, -999.0
06-03-2023, 00:41:31,    253,    0.2,   -0.8,   0.00,   0.00, 1008.2,   89.6, -999.0
06-03-2023, 00:41:41,    253,    0.0,   -0.8,   0.00,   0.00, 1008.1,   89.2, -999.0
06-03-2023, 00:41:51,    253,    0.0,   -0.8,   0.00,   0.00, 1008.1,   89.2, -999.0
06-03-2023, 00:42:01,    253,    0.0,   -0.9,   0.00,   0.00, 1008.1,   89.3, -999.0
06-03-2023, 00:42:12,    253,    0.0,   -0.8,   0.00,   0.00, 1008.1,   89.4, -999.0
06-03-2023, 00:42:21,    253,    0.0,   -0.8,   0.00,   0.00, 1008.1,   89.7, -999.0
06-03-2023, 00:42:31,    252,    0.0,   -0.7,   0.00,   0.00, 1008.1,   89.7, -999.0
06-03-2023, 00:42:41,    252,    0.0,   -0.8,   0.00,   0.00, 1008.2,   89.6, -999.0
06-03-2023, 00:42:51,    252,    0.0,   -0.8,   0.00,   0.00, 1008.1,   89.6, -999.0
06-03-2023, 00:43:01,    252,    0.0,   -0.8,   0.00,   0.00, 1008.1,   89.6, -999.0
06-03-2023, 00:43:11,    252,    0.0,   -0.8,   0.00,   0.00, 1008.1,   89.6, -999.0
06-03-2023, 00:43:21,    252,    0.0,   -1.0,   0.00,   0.00, 1008.1,   89.7, -999.0
06-03-2023, 00:43:31,    252,    0.0,   -0.8,   0.00,   0.00, 1008.1,   89.5, -999.0
06-03-2023, 00:43:41,    255,    0.0,   -0.9,   0.00,   0.00, 1008.1,   89.5, -999.0
06-03-2023, 00:43:51,    252,    0.0,   -0.8,   0.00,   0.00, 1008.1,   89.5, -999.0
06-03-2023, 00:44:01,    253,    0.0,   -0.8,   0.00,   0.00, 1008.1,   89.7, -999.0
06-03-2023, 00:44:11,    252,    0.0,   -0.8,   0.00,   0.00, 1008.1,   89.8, -999.0
06-03-2023, 00:44:21,    252,    0.0,   -0.9,   0.00,   0.00, 1008.1,   89.7, -999.0
06-03-2023, 00:44:31,    252,    0.0,   -0.8,   0.00,   0.00, 1008.1,   89.6, -999.0
06-03-2023, 00:44:41,    253,    0.0,   -0.8,   0.00,   0.00, 1008.1,   89.6, -999.0
06-03-2023, 00:44:51,    252,    0.0,   -0.8,   0.00,   0.00, 1008.1,   89.7, -999.0
06-03-2023, 00:45:01,    253,    0.0,   -0.9,   0.00,   0.00, 1008.1,   89.6, -999.0
06-03-2023, 00:45:11,    253,    0.4,   -0.8,   0.00,   0.00, 1008.2,   89.9, -999.0
06-03-2023, 00:45:21,    251,    0.4,   -0.8,   0.00,   0.00, 1008.2,   90.1, -999.0
06-03-2023, 00:45:31,    251,    0.0,   -0.8,   0.00,   0.00, 1008.2,   89.9, -999.0
06-03-2023, 00:45:41,    252,    0.3,   -0.8,   0.00,   0.00, 1008.2,   90.1, -999.0
06-03-2023, 00:45:51,    252,    0.9,   -0.8,   0.00,   0.00, 1008.3,   90.3, -999.0
06-03-2023, 00:46:01,    251,    0.3,   -0.8,   0.00,   0.00, 1008.2,   90.2, -999.0
06-03-2023, 00:46:11,    251,    0.0,   -0.8,   0.00,   0.00, 1008.1,   90.0, -999.0
06-03-2023, 00:46:21,    251,    0.0,   -0.8,   0.00,   0.00, 1008.1,   90.2, -999.0
06-03-2023, 00:46:31,    251,    0.1,   -0.8,   0.00,   0.00, 1008.1,   90.5, -999.0
06-03-2023, 00:46:41,    251,    0.0,   -0.9,   0.00,   0.00, 1008.1,   90.6, -999.0
06-03-2023, 00:46:51,    251,    0.0,   -0.9,   0.00,   0.00, 1008.1,   90.5, -999.0